| time (UTC) | temp C | wind direction | speed KPH | gust KPH | rain 1hr cm | rain 24hr cm | rain mn cm | humidity % | barometer mb |
| 20260510081549 | 10 | 2 | 0.0 | 0.0 | 0.00 | 0.00 | 0.00 | 96 | 1012.4 |
| 20260510081045 | 10 | 2 | 0.0 | 0.0 | 0.00 | 0.00 | 0.00 | 96 | 1012.4 |
| 20260510080544 | 10 | 2 | 0.0 | 0.0 | 0.00 | 0.00 | 0.00 | 96 | 1012.4 |
| 20260510080042 | 10 | 2 | 0.0 | 0.0 | 0.00 | 0.00 | 0.00 | 96 | 1012.4 |
| 20260510075539 | 10 | 2 | 0.0 | 0.0 | 0.00 | 0.00 | 0.00 | 96 | 1012.4 |
| 20260510075036 | 11 | 2 | 0.0 | 0.0 | 0.00 | 0.00 | 0.00 | 96 | 1012.0 |
| 20260510074533 | 10 | 2 | 0.0 | 0.0 | 0.00 | 0.00 | 0.00 | 96 | 1012.4 |
| 20260510074028 | 10 | 2 | 0.0 | 0.0 | 0.00 | 0.00 | 0.00 | 96 | 1012.4 |
| 20260510073525 | 11 | 2 | 0.0 | 0.0 | 0.00 | 0.00 | 0.00 | 96 | 1012.4 |
| 20260510073022 | 11 | 2 | 0.0 | 0.0 | 0.00 | 0.00 | 0.00 | 96 | 1012.4 |
| 20260510072519 | 11 | 2 | 0.0 | 0.0 | 0.00 | 0.00 | 0.00 | 96 | 1012.4 |
| 20260510072014 | 11 | 2 | 0.0 | 0.0 | 0.00 | 0.00 | 0.00 | 96 | 1012.0 |
| 20260510071510 | 11 | 2 | 0.0 | 0.0 | 0.00 | 0.00 | 0.00 | 95 | 1012.4 |
| 20260510071009 | 11 | 2 | 0.0 | 0.0 | 0.00 | 0.00 | 0.00 | 96 | 1012.4 |
| 20260510070505 | 11 | 2 | 0.0 | 0.0 | 0.00 | 0.00 | 0.00 | 95 | 1012.4 |
| 20260510070002 | 11 | 3 | 0.0 | 0.0 | 0.00 | 0.00 | 0.00 | 95 | 1012.7 |
| 20260510065458 | 11 | 3 | 0.0 | 0.0 | 0.00 | 0.00 | 0.00 | 95 | 1012.4 |
| 20260510064954 | 11 | 3 | 0.0 | 0.0 | 0.00 | 0.00 | 0.00 | 94 | 1012.4 |
| 20260510064452 | 11 | 3 | 0.0 | 0.0 | 0.00 | 0.00 | 0.00 | 94 | 1012.0 |
| 20260510063948 | 11 | 3 | 0.0 | 0.0 | 0.00 | 0.00 | 0.00 | 94 | 1012.4 |
| 20260510063444 | 11 | 3 | 0.0 | 0.0 | 0.00 | 0.00 | 0.00 | 94 | 1012.4 |
| 20260510062942 | 11 | 3 | 0.0 | 0.0 | 0.00 | 0.00 | 0.00 | 93 | 1012.4 |
| 20260510062436 | 12 | 3 | 0.0 | 0.0 | 0.00 | 0.00 | 0.00 | 93 | 1012.4 |
| 20260510061932 | 12 | 3 | 0.0 | 0.0 | 0.00 | 0.00 | 0.00 | 93 | 1012.7 |
| 20260510061429 | 12 | 3 | 0.0 | 0.0 | 0.00 | 0.00 | 0.00 | 93 | 1012.4 |
| 20260510060925 | 12 | 3 | 0.0 | 0.0 | 0.00 | 0.00 | 0.00 | 92 | 1012.4 |
| 20260510060423 | 12 | 4 | 0.0 | 0.0 | 0.00 | 0.00 | 0.00 | 92 | 1012.4 |
| 20260510055919 | 12 | 4 | 0.0 | 0.0 | 0.00 | 0.00 | 0.00 | 92 | 1012.4 |
| 20260510055414 | 12 | 10 | 0.0 | 0.0 | 0.00 | 0.00 | 0.00 | 93 | 1012.0 |
| 20260510054912 | 12 | 9 | 0.0 | 0.0 | 0.00 | 0.00 | 0.00 | 93 | 1012.4 |
| 20260510054408 | 12 | 12 | 0.0 | 0.0 | 0.00 | 0.00 | 0.00 | 93 | 1012.4 |
| 20260510053902 | 12 | 358 | 0.0 | 0.0 | 0.00 | 0.00 | 0.00 | 93 | 1012.4 |
| 20260510053358 | 12 | 349 | 0.0 | 0.0 | 0.00 | 0.00 | 0.00 | 93 | 1012.4 |
| 20260510052855 | 12 | 341 | 0.0 | 0.0 | 0.00 | 0.00 | 0.00 | 92 | 1012.4 |
| 20260510052351 | 12 | 339 | 1.6 | 1.6 | 0.00 | 0.00 | 0.00 | 92 | 1012.4 |
| 20260510051847 | 12 | 35 | 0.0 | 0.0 | 0.00 | 0.00 | 0.00 | 92 | 1012.0 |
| 20260510051344 | 12 | 35 | 0.0 | 0.0 | 0.00 | 0.00 | 0.00 | 91 | 1012.0 |
| 20260510050841 | 12 | 35 | 0.0 | 0.0 | 0.00 | 0.00 | 0.00 | 92 | 1012.4 |
| 20260510050337 | 12 | 54 | 1.6 | 1.6 | 0.00 | 0.00 | 0.00 | 92 | 1012.4 |
| 20260510045834 | 12 | 347 | 0.0 | 0.0 | 0.00 | 0.00 | 0.00 | 92 | 1012.4 |
| 20260510045331 | 12 | 347 | 0.0 | 0.0 | 0.00 | 0.00 | 0.00 | 92 | 1012.0 |
| 20260510044828 | 13 | 347 | 0.0 | 0.0 | 0.00 | 0.00 | 0.00 | 91 | 1012.0 |
| 20260510044325 | 13 | 347 | 0.0 | 0.0 | 0.00 | 0.00 | 0.00 | 91 | 1012.4 |
| 20260510043821 | 13 | 347 | 0.0 | 0.0 | 0.00 | 0.00 | 0.00 | 90 | 1012.4 |
| 20260510043317 | 13 | 347 | 0.0 | 0.0 | 0.00 | 0.00 | 0.00 | 90 | 1012.0 |
| 20260510042815 | 13 | 347 | 0.0 | 0.0 | 0.00 | 0.00 | 0.00 | 89 | 1012.0 |
| 20260510042311 | 13 | 347 | 0.0 | 0.0 | 0.00 | 0.00 | 0.00 | 89 | 1012.4 |
| 20260510041809 | 13 | 347 | 0.0 | 0.0 | 0.00 | 0.00 | 0.00 | 89 | 1012.0 |
| 20260510041306 | 13 | 347 | 0.0 | 0.0 | 0.00 | 0.00 | 0.00 | 89 | 1012.4 |
| 20260510040803 | 13 | 347 | 0.0 | 0.0 | 0.00 | 0.00 | 0.00 | 88 | 1012.4 |
| 20260510040259 | 13 | 347 | 0.0 | 0.0 | 0.00 | 0.00 | 0.00 | 88 | 1012.0 |
| 20260510035755 | 14 | 347 | 0.0 | 0.0 | 0.00 | 0.00 | 0.00 | 87 | 1012.0 |
| 20260510035250 | 14 | 347 | 0.0 | 0.0 | 0.00 | 0.00 | 0.00 | 87 | 1012.0 |
| 20260510034741 | 13 | 347 | 0.0 | 0.0 | 0.00 | 0.00 | 0.00 | 88 | 1012.4 |
| 20260510034239 | 13 | 347 | 0.0 | 0.0 | 0.00 | 0.00 | 0.00 | 89 | 1012.0 |
| 20260510033735 | 13 | 347 | 0.0 | 0.0 | 0.00 | 0.00 | 0.00 | 89 | 1012.0 |
| 20260510033233 | 13 | 347 | 0.0 | 0.0 | 0.00 | 0.00 | 0.00 | 89 | 1012.0 |
| 20260510032729 | 14 | 347 | 0.0 | 0.0 | 0.00 | 0.00 | 0.00 | 88 | 1012.0 |
| 20260510032225 | 14 | 347 | 0.0 | 0.0 | 0.00 | 0.00 | 0.00 | 87 | 1011.7 |
| 20260510031720 | 14 | 347 | 0.0 | 0.0 | 0.00 | 0.00 | 0.00 | 87 | 1012.0 |
| 20260510031216 | 14 | 347 | 0.0 | 0.0 | 0.00 | 0.00 | 0.00 | 86 | 1012.0 |
| 20260510030715 | 15 | 347 | 0.0 | 0.0 | 0.00 | 0.00 | 0.00 | 86 | 1012.0 |
| 20260510030213 | 15 | 347 | 0.0 | 0.0 | 0.00 | 0.00 | 0.00 | 86 | 1011.7 |
| 20260510025711 | 15 | 347 | 0.0 | 0.0 | 0.00 | 0.00 | 0.00 | 85 | 1011.7 |
| 20260510025208 | 15 | 347 | 0.0 | 0.0 | 0.00 | 0.00 | 0.00 | 85 | 1011.7 |
| 20260510024705 | 15 | 346 | 0.0 | 0.0 | 0.00 | 0.00 | 0.00 | 84 | 1011.7 |
| 20260510024201 | 15 | 347 | 0.0 | 0.0 | 0.00 | 0.00 | 0.00 | 84 | 1011.7 |
| 20260510023657 | 15 | 347 | 0.0 | 0.0 | 0.00 | 0.00 | 0.00 | 84 | 1011.7 |
| 20260510023154 | 15 | 347 | 0.0 | 0.0 | 0.00 | 0.00 | 0.00 | 83 | 1011.3 |
| 20260510022650 | 15 | 347 | 0.0 | 0.0 | 0.00 | 0.00 | 0.00 | 83 | 1011.7 |
| 20260510022145 | 16 | 346 | 0.0 | 0.0 | 0.00 | 0.00 | 0.00 | 82 | 1011.3 |
| 20260510021640 | 16 | 346 | 0.0 | 0.0 | 0.00 | 0.00 | 0.00 | 81 | 1011.3 |
| 20260510021137 | 16 | 347 | 0.0 | 0.0 | 0.00 | 0.00 | 0.00 | 80 | 1011.3 |
| 20260510020632 | 16 | 347 | 0.0 | 0.0 | 0.00 | 0.00 | 0.00 | 80 | 1011.3 |
| 20260510020127 | 16 | 347 | 0.0 | 0.0 | 0.00 | 0.00 | 0.00 | 81 | 1011.0 |
| 20260510015624 | 16 | 347 | 0.0 | 0.0 | 0.00 | 0.00 | 0.00 | 81 | 1011.0 |
| 20260510015121 | 16 | 347 | 0.0 | 0.0 | 0.00 | 0.00 | 0.00 | 81 | 1010.7 |
| 20260510014616 | 16 | 347 | 0.0 | 0.0 | 0.00 | 0.00 | 0.00 | 82 | 1010.7 |
| 20260510014114 | 16 | 347 | 0.0 | 0.0 | 0.00 | 0.00 | 0.00 | 80 | 1011.0 |
| 20260510013613 | 16 | 347 | 0.0 | 0.0 | 0.00 | 0.00 | 0.00 | 81 | 1011.0 |
| 20260510013109 | 16 | 347 | 0.0 | 0.0 | 0.00 | 0.00 | 0.00 | 80 | 1010.7 |
| 20260510012608 | 16 | 347 | 0.0 | 0.0 | 0.00 | 0.00 | 0.00 | 80 | 1010.7 |
| 20260510012106 | 16 | 347 | 0.0 | 0.0 | 0.00 | 0.00 | 0.00 | 80 | 1010.7 |
| 20260510011605 | 16 | 347 | 0.0 | 0.0 | 0.00 | 0.00 | 0.00 | 79 | 1010.3 |
| 20260510011101 | 16 | 347 | 0.0 | 0.0 | 0.00 | 0.00 | 0.00 | 79 | 1010.3 |
| 20260510010557 | 17 | 347 | 0.0 | 0.0 | 0.00 | 0.00 | 0.00 | 78 | 1010.3 |
| 20260510010055 | 17 | 347 | 0.0 | 0.0 | 0.00 | 0.00 | 0.00 | 76 | 1010.3 |
| 20260510005550 | 17 | 347 | 0.0 | 0.0 | 0.00 | 0.00 | 0.00 | 76 | 1010.3 |
| 20260510005048 | 17 | 347 | 0.0 | 0.0 | 0.00 | 0.00 | 0.00 | 75 | 1010.0 |
| 20260510004546 | 17 | 347 | 0.0 | 0.0 | 0.00 | 0.00 | 0.00 | 74 | 1010.0 |
| 20260510004044 | 17 | 347 | 0.0 | 0.0 | 0.00 | 0.00 | 0.00 | 73 | 1010.0 |
| 20260510003540 | 18 | 347 | 0.0 | 1.6 | 0.00 | 0.00 | 0.00 | 72 | 1010.0 |
| 20260510003035 | 18 | 347 | 0.0 | 0.0 | 0.00 | 0.00 | 0.00 | 71 | 1010.0 |
| 20260510002531 | 18 | 347 | 0.0 | 0.0 | 0.00 | 0.00 | 0.00 | 69 | 1009.7 |
| 20260510002028 | 18 | 347 | 0.0 | 0.0 | 0.00 | 0.00 | 0.00 | 68 | 1010.0 |
| 20260510001525 | 19 | 347 | 0.0 | 0.0 | 0.00 | 0.00 | 0.00 | 69 | 1010.0 |
| 20260510001024 | 20 | 347 | 0.0 | 0.0 | 0.00 | 0.00 | 0.00 | 66 | 1010.0 |
| 20260510000519 | 20 | 347 | 0.0 | 0.0 | 0.00 | 0.00 | 0.00 | 64 | 1009.7 |
| 20260510000016 | 20 | 347 | 0.0 | 0.0 | 0.00 | 0.00 | 0.00 | 63 | 1010.0 |
| 20260509235513 | 20 | 34 | 0.0 | 0.0 | 0.00 | 0.00 | 0.00 | 63 | 1009.7 |
| 20260509235009 | 20 | 34 | 0.0 | 0.0 | 0.00 | 0.00 | 0.00 | 64 | 1009.3 |
| 20260509234506 | 21 | 33 | 0.0 | 0.0 | 0.00 | 0.00 | 0.00 | 62 | 1009.7 |
| 20260509234004 | 21 | 33 | 0.0 | 0.0 | 0.00 | 0.00 | 0.00 | 61 | 1009.7 |
| 20260509233500 | 21 | 1 | 0.0 | 0.0 | 0.00 | 0.00 | 0.00 | 60 | 1009.3 |
| 20260509232956 | 21 | 0 | 0.0 | 0.0 | 0.00 | 0.00 | 0.00 | 60 | 1009.7 |
| 20260509232455 | 21 | 0 | 0.0 | 0.0 | 0.00 | 0.00 | 0.00 | 59 | 1009.7 |
| 20260509231950 | 22 | 358 | 0.0 | 0.0 | 0.00 | 0.00 | 0.00 | 59 | 1009.3 |
| 20260509231447 | 22 | 359 | 0.0 | 0.0 | 0.00 | 0.00 | 0.00 | 59 | 1009.3 |
| 20260509230945 | 22 | 350 | 0.0 | 0.0 | 0.00 | 0.00 | 0.00 | 58 | 1009.7 |
| 20260509230442 | 22 | 29 | 0.0 | 1.6 | 0.00 | 0.00 | 0.00 | 59 | 1009.7 |
| 20260509225938 | 22 | 50 | 0.0 | 0.0 | 0.00 | 0.00 | 0.00 | 58 | 1009.7 |
| 20260509225434 | 22 | 32 | 0.0 | 0.0 | 0.00 | 0.00 | 0.00 | 58 | 1009.3 |
| 20260509224930 | 22 | 200 | 1.6 | 1.6 | 0.00 | 0.00 | 0.00 | 55 | 1009.7 |
| 20260509224425 | 22 | 37 | 0.0 | 0.0 | 0.00 | 0.00 | 0.00 | 55 | 1009.3 |
| 20260509223923 | 22 | 24 | 1.6 | 1.6 | 0.00 | 0.00 | 0.00 | 54 | 1009.3 |
| 20260509223420 | 22 | 18 | 0.0 | 0.0 | 0.00 | 0.00 | 0.00 | 56 | 1009.3 |
| 20260509222917 | 23 | 23 | 1.6 | 1.6 | 0.00 | 0.00 | 0.00 | 55 | 1009.3 |
| 20260509222412 | 23 | 13 | 0.0 | 1.6 | 0.00 | 0.00 | 0.00 | 54 | 1009.3 |
| 20260509221908 | 23 | 12 | 1.6 | 1.6 | 0.00 | 0.00 | 0.00 | 53 | 1009.7 |
| 20260509221405 | 23 | 316 | 0.0 | 0.0 | 0.00 | 0.00 | 0.00 | 54 | 1009.7 |
| 20260509220901 | 23 | 14 | 1.6 | 3.2 | 0.00 | 0.00 | 0.00 | 55 | 1009.7 |
| 20260509220357 | 23 | 40 | 0.0 | 1.6 | 0.00 | 0.00 | 0.00 | 53 | 1009.7 |
| 20260509215853 | 23 | 332 | 1.6 | 1.6 | 0.00 | 0.00 | 0.00 | 53 | 1009.3 |
| 20260509215349 | 23 | 55 | 4.8 | 8.0 | 0.00 | 0.00 | 0.00 | 52 | 1009.3 |
| 20260509214846 | 23 | 6 | 0.0 | 0.0 | 0.00 | 0.00 | 0.00 | 55 | 1009.7 |
| 20260509214344 | 23 | 1 | 0.0 | 0.0 | 0.00 | 0.00 | 0.00 | 53 | 1009.0 |
| 20260509213841 | 23 | 349 | 1.6 | 3.2 | 0.00 | 0.00 | 0.00 | 52 | 1009.3 |
| 20260509213336 | 22 | 10 | 0.0 | 1.6 | 0.00 | 0.00 | 0.00 | 53 | 1009.3 |
| 20260509212834 | 22 | 37 | 0.0 | 1.6 | 0.00 | 0.00 | 0.00 | 54 | 1009.3 |
| 20260509212331 | 22 | 329 | 1.6 | 3.2 | 0.00 | 0.00 | 0.00 | 53 | 1009.3 |
| 20260509211821 | 22 | 287 | 0.0 | 1.6 | 0.00 | 0.00 | 0.00 | 53 | 1009.3 |
| 20260509211317 | 23 | 89 | 1.6 | 3.2 | 0.00 | 0.00 | 0.00 | 54 | 1009.3 |
| 20260509210814 | 23 | 16 | 0.0 | 1.6 | 0.00 | 0.00 | 0.00 | 52 | 1009.3 |
| 20260509210312 | 23 | 322 | 1.6 | 1.6 | 0.00 | 0.00 | 0.00 | 52 | 1009.3 |
| 20260509205811 | 24 | 332 | 0.0 | 0.0 | 0.00 | 0.00 | 0.00 | 49 | 1009.3 |
| 20260509205307 | 25 | 11 | 3.2 | 4.8 | 0.00 | 0.00 | 0.00 | 47 | 1009.3 |
| 20260509204803 | 25 | 273 | 1.6 | 3.2 | 0.00 | 0.00 | 0.00 | 50 | 1009.0 |
| 20260509204259 | 25 | 20 | 1.6 | 3.2 | 0.00 | 0.00 | 0.00 | 48 | 1009.3 |
| 20260509203755 | 25 | 327 | 1.6 | 1.6 | 0.00 | 0.00 | 0.00 | 49 | 1009.0 |
| 20260509203253 | 25 | 293 | 1.6 | 1.6 | 0.00 | 0.00 | 0.00 | 50 | 1009.3 |
| 20260509202749 | 25 | 340 | 3.2 | 3.2 | 0.00 | 0.00 | 0.00 | 49 | 1009.3 |
| 20260509202245 | 25 | 338 | 1.6 | 3.2 | 0.00 | 0.00 | 0.00 | 48 | 1009.3 |
| 20260509201744 | 25 | 274 | 3.2 | 4.8 | 0.00 | 0.00 | 0.00 | 46 | 1009.0 |
| 20260509201241 | 25 | 336 | 1.6 | 1.6 | 0.00 | 0.00 | 0.00 | 50 | 1009.0 |
| 20260509200737 | 25 | 248 | 3.2 | 4.8 | 0.00 | 0.00 | 0.00 | 47 | 1009.0 |
| 20260509200233 | 25 | 3 | 0.0 | 0.0 | 0.00 | 0.00 | 0.00 | 49 | 1009.0 |
| 20260509195729 | 25 | 298 | 3.2 | 3.2 | 0.00 | 0.00 | 0.00 | 48 | 1009.0 |
| 20260509195224 | 25 | 282 | 3.2 | 4.8 | 0.00 | 0.00 | 0.00 | 48 | 1009.3 |
| 20260509194719 | 25 | 176 | 1.6 | 1.6 | 0.00 | 0.00 | 0.00 | 46 | 1009.3 |
| 20260509194215 | 23 | 348 | 3.2 | 3.2 | 0.00 | 0.00 | 0.00 | 55 | 1009.3 |
| 20260509193712 | 23 | 12 | 3.2 | 3.2 | 0.00 | 0.00 | 0.00 | 56 | 1009.7 |
| 20260509193212 | 22 | 344 | 1.6 | 1.6 | 0.00 | 0.00 | 0.00 | 53 | 1009.7 |
| 20260509192708 | 23 | 247 | 1.6 | 1.6 | 0.00 | 0.00 | 0.00 | 53 | 1009.7 |
| 20260509192203 | 23 | 200 | 1.6 | 3.2 | 0.00 | 0.00 | 0.00 | 52 | 1009.7 |
| 20260509191659 | 24 | 311 | 1.6 | 1.6 | 0.00 | 0.00 | 0.00 | 52 | 1009.7 |
| 20260509191155 | 25 | 74 | 1.6 | 1.6 | 0.00 | 0.00 | 0.00 | 48 | 1010.0 |
| 20260509190652 | 26 | 293 | 1.6 | 1.6 | 0.00 | 0.00 | 0.00 | 53 | 1009.7 |
| 20260509190149 | 25 | 325 | 1.6 | 1.6 | 0.00 | 0.00 | 0.00 | 52 | 1010.0 |
| 20260509185647 | 24 | 35 | 3.2 | 4.8 | 0.00 | 0.00 | 0.00 | 52 | 1010.0 |
| 20260509185143 | 23 | 282 | 1.6 | 3.2 | 0.00 | 0.00 | 0.00 | 54 | 1010.0 |
| 20260509184641 | 24 | 355 | 1.6 | 1.6 | 0.00 | 0.00 | 0.00 | 54 | 1010.0 |
| 20260509184137 | 24 | 342 | 1.6 | 1.6 | 0.00 | 0.00 | 0.00 | 53 | 1010.3 |
| 20260509183634 | 23 | 207 | 1.6 | 1.6 | 0.00 | 0.00 | 0.00 | 55 | 1010.3 |
| 20260509183129 | 22 | 339 | 4.8 | 8.0 | 0.00 | 0.00 | 0.00 | 59 | 1010.3 |
| 20260509182625 | 22 | 19 | 1.6 | 1.6 | 0.00 | 0.00 | 0.00 | 58 | 1010.7 |
| 20260509182122 | 22 | 322 | 3.2 | 4.8 | 0.00 | 0.00 | 0.00 | 55 | 1010.7 |
| 20260509181615 | 23 | 350 | 1.6 | 1.6 | 0.00 | 0.00 | 0.00 | 55 | 1010.7 |
| 20260509181113 | 23 | 359 | 1.6 | 1.6 | 0.00 | 0.00 | 0.00 | 57 | 1010.7 |
| 20260509180609 | 24 | 349 | 1.6 | 1.6 | 0.00 | 0.00 | 0.00 | 53 | 1010.7 |
| 20260509180106 | 23 | 359 | 3.2 | 3.2 | 0.00 | 0.00 | 0.00 | 55 | 1010.7 |
| 20260509175601 | 23 | 331 | 0.0 | 0.0 | 0.00 | 0.00 | 0.00 | 60 | 1010.7 |
| 20260509175058 | 23 | 144 | 4.8 | 9.7 | 0.00 | 0.00 | 0.00 | 56 | 1010.7 |
| 20260509174554 | 22 | 178 | 3.2 | 4.8 | 0.00 | 0.00 | 0.00 | 55 | 1011.0 |
| 20260509174049 | 22 | 302 | 1.6 | 3.2 | 0.00 | 0.00 | 0.00 | 61 | 1011.0 |
| 20260509173550 | 22 | 357 | 0.0 | 1.6 | 0.00 | 0.00 | 0.00 | 60 | 1010.7 |
| 20260509173046 | 23 | 337 | 1.6 | 1.6 | 0.00 | 0.00 | 0.00 | 61 | 1011.3 |
| 20260509172544 | 21 | 325 | 1.6 | 1.6 | 0.00 | 0.00 | 0.00 | 61 | 1011.3 |
| 20260509172039 | 21 | 359 | 3.2 | 3.2 | 0.00 | 0.00 | 0.00 | 61 | 1011.3 |
| 20260509171535 | 21 | 282 | 3.2 | 4.8 | 0.00 | 0.00 | 0.00 | 60 | 1011.3 |
| 20260509171032 | 21 | 11 | 0.0 | 1.6 | 0.00 | 0.00 | 0.00 | 61 | 1011.7 |
| 20260509170527 | 21 | 228 | 4.8 | 8.0 | 0.00 | 0.00 | 0.00 | 63 | 1011.3 |
| 20260509170023 | 21 | 359 | 3.2 | 3.2 | 0.00 | 0.00 | 0.00 | 64 | 1011.3 |
| 20260509165522 | 22 | 5 | 1.6 | 1.6 | 0.00 | 0.00 | 0.00 | 60 | 1011.3 |
| 20260509165018 | 22 | 203 | 1.6 | 3.2 | 0.00 | 0.00 | 0.00 | 59 | 1011.0 |
| 20260509164514 | 22 | 343 | 0.0 | 0.0 | 0.00 | 0.00 | 0.00 | 60 | 1011.0 |
| 20260509164009 | 21 | 9 | 1.6 | 1.6 | 0.00 | 0.00 | 0.00 | 62 | 1011.0 |
| 20260509163508 | 21 | 18 | 1.6 | 1.6 | 0.00 | 0.00 | 0.00 | 64 | 1011.7 |
| 20260509163002 | 20 | 302 | 1.6 | 3.2 | 0.00 | 0.00 | 0.00 | 65 | 1011.7 |
| 20260509162500 | 19 | 1 | 1.6 | 1.6 | 0.00 | 0.00 | 0.00 | 69 | 1011.7 |
| 20260509161956 | 18 | 12 | 0.0 | 0.0 | 0.00 | 0.00 | 0.00 | 69 | 1011.7 |
| 20260509161453 | 18 | 80 | 1.6 | 3.2 | 0.00 | 0.00 | 0.00 | 68 | 1011.7 |
| 20260509160947 | 19 | 330 | 3.2 | 3.2 | 0.00 | 0.00 | 0.00 | 67 | 1011.7 |
| 20260509160444 | 18 | 6 | 0.0 | 1.6 | 0.00 | 0.00 | 0.00 | 68 | 1011.7 |
| 20260509155944 | 18 | 301 | 1.6 | 1.6 | 0.00 | 0.00 | 0.00 | 71 | 1011.7 |
| 20260509155441 | 18 | 29 | 0.0 | 1.6 | 0.00 | 0.00 | 0.00 | 72 | 1012.0 |
| 20260509154937 | 18 | 38 | 0.0 | 1.6 | 0.00 | 0.00 | 0.00 | 69 | 1012.0 |
| 20260509154434 | 18 | 51 | 1.6 | 1.6 | 0.00 | 0.00 | 0.00 | 69 | 1011.7 |
| 20260509153931 | 18 | 323 | 1.6 | 1.6 | 0.00 | 0.00 | 0.00 | 71 | 1012.0 |
| 20260509153428 | 18 | 130 | 0.0 | 1.6 | 0.00 | 0.00 | 0.00 | 69 | 1012.4 |
| 20260509152925 | 18 | 200 | 1.6 | 1.6 | 0.00 | 0.00 | 0.00 | 68 | 1012.0 |
| 20260509152421 | 18 | 314 | 0.0 | 1.6 | 0.00 | 0.00 | 0.00 | 69 | 1012.4 |
| 20260509151918 | 18 | 149 | 1.6 | 1.6 | 0.00 | 0.00 | 0.00 | 67 | 1012.4 |
| 20260509151414 | 17 | 172 | 0.0 | 1.6 | 0.00 | 0.00 | 0.00 | 67 | 1012.4 |
| 20260509150912 | 17 | 8 | 0.0 | 1.6 | 0.00 | 0.00 | 0.00 | 70 | 1012.0 |
| 20260509150409 | 16 | 42 | 1.6 | 1.6 | 0.00 | 0.00 | 0.00 | 73 | 1012.4 |
| 20260509145908 | 16 | 334 | 0.0 | 1.6 | 0.00 | 0.00 | 0.00 | 71 | 1012.4 |
| 20260509145407 | 16 | 294 | 1.6 | 1.6 | 0.00 | 0.00 | 0.00 | 71 | 1012.7 |
| 20260509144903 | 16 | 30 | 0.0 | 0.0 | 0.00 | 0.00 | 0.00 | 70 | 1012.4 |
| 20260509144400 | 16 | 44 | 0.0 | 0.0 | 0.00 | 0.00 | 0.00 | 71 | 1012.4 |
| 20260509143857 | 16 | 341 | 0.0 | 0.0 | 0.00 | 0.00 | 0.00 | 70 | 1012.0 |
| 20260509143355 | 17 | 31 | 0.0 | 0.0 | 0.00 | 0.00 | 0.00 | 68 | 1012.0 |
| 20260509142851 | 16 | 335 | 4.8 | 8.0 | 0.00 | 0.00 | 0.00 | 69 | 1012.4 |
| 20260509142347 | 15 | 350 | 0.0 | 0.0 | 0.00 | 0.00 | 0.00 | 74 | 1012.0 |
| 20260509141843 | 15 | 25 | 0.0 | 0.0 | 0.00 | 0.00 | 0.00 | 74 | 1012.4 |
| 20260509141340 | 15 | 358 | 1.6 | 1.6 | 0.00 | 0.00 | 0.00 | 75 | 1012.7 |
| 20260509140836 | 14 | 37 | 1.6 | 1.6 | 0.00 | 0.00 | 0.00 | 74 | 1012.4 |
| 20260509140334 | 14 | 359 | 1.6 | 1.6 | 0.00 | 0.00 | 0.00 | 77 | 1012.7 |
| 20260509135832 | 13 | 316 | 1.6 | 3.2 | 0.00 | 0.00 | 0.00 | 76 | 1012.7 |
| 20260509135329 | 13 | 342 | 0.0 | 1.6 | 0.00 | 0.00 | 0.00 | 77 | 1012.7 |
| 20260509134826 | 13 | 32 | 1.6 | 1.6 | 0.00 | 0.00 | 0.00 | 76 | 1012.7 |
| 20260509134323 | 13 | 8 | 0.0 | 0.0 | 0.00 | 0.00 | 0.00 | 78 | 1012.7 |
| 20260509133820 | 13 | 1 | 0.0 | 1.6 | 0.00 | 0.00 | 0.00 | 76 | 1012.7 |
| 20260509133316 | 13 | 222 | 0.0 | 1.6 | 0.00 | 0.00 | 0.00 | 75 | 1012.7 |
| 20260509132815 | 12 | 2 | 1.6 | 1.6 | 0.00 | 0.00 | 0.00 | 76 | 1013.0 |
| 20260509132314 | 12 | 12 | 0.0 | 0.0 | 0.00 | 0.00 | 0.00 | 75 | 1012.7 |
| 20260509131810 | 12 | 18 | 0.0 | 0.0 | 0.00 | 0.00 | 0.00 | 76 | 1013.0 |
| 20260509131307 | 12 | 346 | 0.0 | 0.0 | 0.00 | 0.00 | 0.00 | 76 | 1013.0 |
| 20260509130803 | 12 | 32 | 1.6 | 1.6 | 0.00 | 0.00 | 0.00 | 78 | 1013.0 |
| 20260509130259 | 12 | 35 | 0.0 | 0.0 | 0.00 | 0.00 | 0.00 | 76 | 1013.0 |
| 20260509125756 | 12 | 38 | 0.0 | 0.0 | 0.00 | 0.00 | 0.00 | 79 | 1013.0 |
| 20260509125252 | 12 | 46 | 1.6 | 1.6 | 0.00 | 0.00 | 0.00 | 76 | 1013.4 |
| 20260509124749 | 12 | 34 | 1.6 | 1.6 | 0.00 | 0.00 | 0.00 | 77 | 1013.0 |
| 20260509124245 | 12 | 357 | 0.0 | 0.0 | 0.00 | 0.00 | 0.00 | 77 | 1013.0 |
| 20260509123744 | 12 | 331 | 0.0 | 0.0 | 0.00 | 0.00 | 0.00 | 78 | 1013.0 |
| 20260509123241 | 11 | 344 | 0.0 | 1.6 | 0.00 | 0.00 | 0.00 | 80 | 1013.0 |
| 20260509122736 | 11 | 355 | 0.0 | 0.0 | 0.00 | 0.00 | 0.00 | 80 | 1013.0 |
| 20260509122233 | 11 | 20 | 0.0 | 1.6 | 0.00 | 0.00 | 0.00 | 79 | 1013.4 |
| 20260509121730 | 11 | 359 | 0.0 | 0.0 | 0.00 | 0.00 | 0.00 | 79 | 1012.7 |
| 20260509121227 | 11 | 40 | 0.0 | 1.6 | 0.00 | 0.00 | 0.00 | 79 | 1013.0 |
| 20260509120726 | 11 | 31 | 1.6 | 1.6 | 0.00 | 0.00 | 0.00 | 81 | 1013.0 |
| 20260509120223 | 10 | 70 | 1.6 | 1.6 | 0.00 | 0.00 | 0.00 | 80 | 1013.0 |
| 20260509115721 | 10 | 31 | 0.0 | 0.0 | 0.00 | 0.00 | 0.00 | 81 | 1013.0 |
| 20260509115218 | 10 | 26 | 0.0 | 0.0 | 0.00 | 0.00 | 0.00 | 82 | 1013.0 |
| 20260509114716 | 10 | 22 | 0.0 | 0.0 | 0.00 | 0.00 | 0.00 | 81 | 1013.0 |
| 20260509114214 | 10 | 17 | 0.0 | 0.0 | 0.00 | 0.00 | 0.00 | 82 | 1013.0 |
| 20260509113713 | 10 | 17 | 0.0 | 0.0 | 0.00 | 0.00 | 0.00 | 83 | 1013.4 |
| 20260509113209 | 10 | 17 | 0.0 | 0.0 | 0.00 | 0.00 | 0.00 | 84 | 1013.0 |
| 20260509112706 | 10 | 17 | 0.0 | 0.0 | 0.00 | 0.00 | 0.00 | 84 | 1013.0 |
| 20260509112203 | 9 | 17 | 0.0 | 0.0 | 0.00 | 0.00 | 0.00 | 84 | 1013.0 |
| 20260509111700 | 9 | 17 | 0.0 | 0.0 | 0.00 | 0.00 | 0.00 | 84 | 1013.0 |
| 20260509111157 | 9 | 17 | 0.0 | 0.0 | 0.00 | 0.00 | 0.00 | 84 | 1013.0 |
| 20260509110654 | 8 | 15 | 0.0 | 0.0 | 0.00 | 0.00 | 0.00 | 84 | 1013.0 |
| 20260509110151 | 8 | 16 | 0.0 | 0.0 | 0.00 | 0.00 | 0.00 | 85 | 1013.0 |
| 20260509105649 | 8 | 16 | 0.0 | 0.0 | 0.00 | 0.00 | 0.00 | 85 | 1013.0 |
| 20260509105146 | 8 | 16 | 0.0 | 0.0 | 0.00 | 0.00 | 0.00 | 85 | 1013.0 |
| 20260509104643 | 8 | 16 | 0.0 | 0.0 | 0.00 | 0.00 | 0.00 | 84 | 1012.7 |
| 20260509104140 | 8 | 16 | 0.0 | 0.0 | 0.00 | 0.00 | 0.00 | 85 | 1013.0 |
| 20260509103638 | 8 | 8 | 0.0 | 0.0 | 0.00 | 0.00 | 0.00 | 84 | 1013.0 |
| 20260509103136 | 8 | 7 | 0.0 | 0.0 | 0.00 | 0.00 | 0.00 | 83 | 1013.0 |
| 20260509102633 | 8 | 25 | 0.0 | 0.0 | 0.00 | 0.00 | 0.00 | 83 | 1013.0 |
| 20260509102130 | 8 | 25 | 0.0 | 0.0 | 0.00 | 0.00 | 0.00 | 83 | 1013.0 |
| 20260509101626 | 8 | 25 | 0.0 | 0.0 | 0.00 | 0.00 | 0.00 | 83 | 1013.0 |
| 20260509101123 | 9 | 25 | 0.0 | 0.0 | 0.00 | 0.00 | 0.00 | 84 | 1013.0 |
| 20260509100620 | 9 | 25 | 0.0 | 0.0 | 0.00 | 0.00 | 0.00 | 83 | 1013.0 |
| 20260509100117 | 9 | 25 | 0.0 | 0.0 | 0.00 | 0.00 | 0.00 | 82 | 1012.7 |
| 20260509095614 | 9 | 25 | 0.0 | 0.0 | 0.00 | 0.00 | 0.00 | 80 | 1013.0 |
| 20260509095111 | 9 | 25 | 0.0 | 0.0 | 0.00 | 0.00 | 0.00 | 78 | 1012.7 |
| 20260509094607 | 9 | 25 | 0.0 | 0.0 | 0.00 | 0.00 | 0.00 | 79 | 1012.7 |
| 20260509094105 | 9 | 25 | 0.0 | 0.0 | 0.00 | 0.00 | 0.00 | 79 | 1012.7 |
| 20260509093603 | 9 | 25 | 0.0 | 0.0 | 0.00 | 0.00 | 0.00 | 79 | 1012.7 |
| 20260509093100 | 10 | 25 | 0.0 | 0.0 | 0.00 | 0.00 | 0.00 | 81 | 1012.7 |
| 20260509092558 | 10 | 25 | 0.0 | 0.0 | 0.00 | 0.00 | 0.00 | 81 | 1012.7 |
| 20260509092056 | 10 | 25 | 0.0 | 0.0 | 0.00 | 0.00 | 0.00 | 80 | 1012.7 |
| 20260509091554 | 10 | 25 | 0.0 | 0.0 | 0.00 | 0.00 | 0.00 | 80 | 1012.7 |
| 20260509091050 | 10 | 25 | 0.0 | 0.0 | 0.00 | 0.00 | 0.00 | 80 | 1013.0 |
| 20260509090547 | 9 | 25 | 0.0 | 0.0 | 0.00 | 0.00 | 0.00 | 75 | 1013.0 |
| 20260509090045 | 9 | 25 | 0.0 | 0.0 | 0.00 | 0.00 | 0.00 | 75 | 1012.7 |
| 20260509085542 | 9 | 25 | 0.0 | 0.0 | 0.00 | 0.00 | 0.00 | 77 | 1013.0 |
| 20260509085038 | 9 | 25 | 0.0 | 0.0 | 0.00 | 0.00 | 0.00 | 77 | 1012.7 |
| 20260509084535 | 10 | 25 | 0.0 | 0.0 | 0.00 | 0.00 | 0.00 | 77 | 1013.0 |
| 20260509084032 | 10 | 25 | 0.0 | 0.0 | 0.00 | 0.00 | 0.00 | 77 | 1013.0 |
| 20260509083530 | 10 | 25 | 0.0 | 0.0 | 0.00 | 0.00 | 0.00 | 75 | 1013.0 |
| 20260509083026 | 10 | 25 | 0.0 | 0.0 | 0.00 | 0.00 | 0.00 | 74 | 1013.0 |
| 20260509082524 | 10 | 25 | 0.0 | 0.0 | 0.00 | 0.00 | 0.00 | 74 | 1012.7 |
| 20260509082021 | 10 | 25 | 0.0 | 0.0 | 0.00 | 0.00 | 0.00 | 74 | 1013.0 |